Weather History for KVLL - October, 2012

Change the Weather History Date:

Sunday, October 28, 2012

  Actual Average Record
Temperature  
Mean Temperature 44 °F -  
Max Temperature 47 °F - - ()
Min Temperature 40 °F - - ()
Degree Days  
Heating Degree Days 22    
Moisture  
Dew Point 29 °F    
Average Humidity 57    
Maximum Humidity 70    
Minimum Humidity 46    
Precipitation  
Precipitation 0.00 in - - ()
Sea Level Pressure  
Sea Level Pressure 30.17 in    
Wind  
Wind Speed 12 mph (North)    
Max Wind Speed 22 mph    
Max Gust Speed 32 mph    
Visibility 10 miles    
Events      
T = Trace of Precipitation, MM = Missing Value Source: NWS Daily Summary

Daily Weather History Graph

Daily Weather History Graph

Search for Another Location

Airport or City:

Trip Planner

Search our weather history database for the weather conditions in past years. The results will help you decide how hot, cold, wet, or windy it might be!

Date:

Astronomy

Oct. 28, 2012 Rise Set
Actual Time 8:01 AM EDT 6:30 PM EDT
Civil Twilight 7:32 AM EDT 6:59 PM EDT
Nautical Twilight 6:59 AM EDT 7:32 PM EDT
Astronomical Twilight 6:27 AM EDT 8:05 PM EDT
Moon 5:47 PM EDT (10/28) 6:53 AM EDT (10/28)
Length of Visible Light 11h 26m
Length of Day
10h 28m
Waxing Gibbous, 99% of the Moon is Illuminated
Oct 28
Waxing Gibbous
Oct 29
Full
Nov 6
Last Quarter
Nov 13
New
Nov 20
First Quarter

Hourly Weather History & Observations

Time (EDT) Temp. Windchill Dew Point Humidity Pressure Visibility Wind Dir Wind Speed Gust Speed Precip Events Conditions
12:15 AM 41.2 °F 35.5 °F 30.0 °F 65% 30.22 in 10.0 mi North 9.2 mph - N/A   Clear
12:54 AM 41.0 °F 35.8 °F 29.3 °F 63% 30.22 in 10.0 mi North 8.1 mph - N/A   Scattered Clouds
1:15 AM 41.2 °F 35.5 °F 28.9 °F 62% 30.22 in 10.0 mi North 9.2 mph - N/A   Mostly Cloudy
1:35 AM 41.4 °F 35.2 °F 28.4 °F 60% 30.22 in 10.0 mi North 10.4 mph - N/A   Mostly Cloudy
1:54 AM 41.0 °F 34.3 °F 28.6 °F 61% 30.21 in 10.0 mi North 11.5 mph - N/A   Mostly Cloudy
2:15 AM 41.0 °F 34.7 °F 28.8 °F 62% 30.21 in 10.0 mi North 10.4 mph 17.3 mph N/A   Scattered Clouds
2:35 AM 41.0 °F 34.3 °F 28.9 °F 62% 30.21 in 10.0 mi North 11.5 mph 16.1 mph N/A   Mostly Cloudy
2:54 AM 40.6 °F 34.8 °F 28.4 °F 62% 30.20 in 10.0 mi North 9.2 mph - N/A   Scattered Clouds
3:15 AM 40.5 °F 34.6 °F 28.4 °F 62% 30.20 in 10.0 mi NNW 9.2 mph - N/A   Clear
3:34 AM 40.5 °F 34.1 °F 28.4 °F 62% 30.20 in 10.0 mi North 10.4 mph 17.3 mph N/A   Clear
3:55 AM 40.5 °F 34.1 °F 28.2 °F 62% 30.20 in 10.0 mi North 10.4 mph - N/A   Clear
4:15 AM 40.6 °F 34.3 °F 28.2 °F 61% 30.20 in 10.0 mi NNW 10.4 mph 17.3 mph N/A   Scattered Clouds
4:34 AM 40.6 °F 34.8 °F 28.2 °F 61% 30.20 in 10.0 mi NNW 9.2 mph 16.1 mph N/A   Scattered Clouds
4:55 AM 40.6 °F 33.0 °F 28.4 °F 62% 30.20 in 10.0 mi NNW 13.8 mph 17.3 mph N/A   Mostly Cloudy
5:15 AM 40.6 °F 34.8 °F 29.1 °F 64% 30.20 in 10.0 mi NNW 9.2 mph 17.3 mph N/A   Overcast
5:34 AM 40.5 °F 33.6 °F 29.7 °F 65% 30.20 in 10.0 mi NNW 11.5 mph 20.7 mph N/A   Mostly Cloudy
5:55 AM 40.6 °F 33.0 °F 30.2 °F 66% 30.19 in 10.0 mi North 13.8 mph 18.4 mph N/A   Mostly Cloudy
6:14 AM 40.5 °F 33.6 °F 30.6 °F 68% 30.19 in 10.0 mi North 11.5 mph 19.6 mph N/A   Scattered Clouds
6:35 AM 40.5 °F 32.8 °F 30.9 °F 69% 30.18 in 10.0 mi North 13.8 mph 18.4 mph N/A   Scattered Clouds
6:54 AM 40.3 °F 32.6 °F 31.1 °F 70% 30.17 in 10.0 mi NNW 13.8 mph 19.6 mph N/A   Clear
7:14 AM 40.1 °F 33.2 °F 31.1 °F 70% 30.17 in 10.0 mi NNW 11.5 mph 19.6 mph N/A   Clear
7:35 AM 40.1 °F 32.0 °F 31.1 °F 70% 30.18 in 10.0 mi North 15.0 mph 19.6 mph N/A   Scattered Clouds
7:54 AM 40.3 °F 33.9 °F 31.3 °F 70% 30.18 in 10.0 mi North 10.4 mph 16.1 mph N/A   Mostly Cloudy
8:15 AM 40.8 °F 34.1 °F 31.8 °F 70% 30.19 in 10.0 mi North 11.5 mph 16.1 mph N/A   Overcast
8:34 AM 41.0 °F 35.2 °F 32.0 °F 70% 30.20 in 10.0 mi North 9.2 mph 16.1 mph N/A   Overcast
9:14 AM 41.9 °F 35.9 °F 32.7 °F 70% 30.20 in 10.0 mi North 10.4 mph - N/A   Overcast
9:34 AM 42.4 °F 36.5 °F 33.1 °F 69% 30.20 in 10.0 mi North 10.4 mph - N/A   Overcast
9:55 AM 43.3 °F 38.6 °F 33.4 °F 68% 30.20 in 10.0 mi North 8.1 mph - N/A   Overcast
10:14 AM 44.6 °F 38.8 °F 33.4 °F 65% 30.20 in 10.0 mi North 11.5 mph 23.0 mph N/A   Overcast
10:35 AM 45.5 °F 39.6 °F 32.9 °F 61% 30.20 in 10.0 mi NNE 12.7 mph 19.6 mph N/A   Overcast
10:54 AM 46.0 °F 39.6 °F 32.4 °F 59% 30.20 in 10.0 mi North 15.0 mph 24.2 mph N/A   Overcast
11:15 AM 45.9 °F 39.7 °F 32.0 °F 58% 30.18 in 10.0 mi NNE 13.8 mph 24.2 mph N/A   Overcast
11:34 AM 47.3 °F - 30.4 °F 52% 30.18 in 10.0 mi NNE 17.3 mph 27.6 mph N/A   Overcast
11:54 AM 46.9 °F - 29.8 °F 51% 30.19 in 10.0 mi NNE 17.3 mph 26.5 mph N/A   Overcast
12:15 PM 47.3 °F - 29.8 °F 51% 30.17 in 10.0 mi NNE 15.0 mph 28.8 mph N/A   Overcast
12:34 PM 47.3 °F - 28.8 °F 49% 30.17 in 10.0 mi North 20.7 mph 27.6 mph N/A   Scattered Clouds
12:55 PM 46.6 °F - 27.9 °F 48% 30.17 in 10.0 mi NNE 9.2 mph 32.2 mph N/A   Scattered Clouds
1:15 PM 46.8 °F - 27.5 °F 47% 30.15 in 10.0 mi NNE 16.1 mph 28.8 mph N/A   Scattered Clouds
1:34 PM 47.5 °F - 27.5 °F 46% 30.15 in 10.0 mi NNE 19.6 mph 28.8 mph N/A   Clear
1:55 PM 46.8 °F - 27.9 °F 48% 30.15 in 10.0 mi North 18.4 mph 25.3 mph N/A   Clear
2:15 PM 46.4 °F 38.5 °F 27.1 °F 47% 30.15 in 10.0 mi North 21.9 mph 29.9 mph N/A   Scattered Clouds
2:34 PM 46.4 °F 39.5 °F 27.0 °F 47% 30.15 in 10.0 mi NNE 17.3 mph 26.5 mph N/A   Scattered Clouds
2:55 PM 46.4 °F 40.1 °F 26.8 °F 46% 30.15 in 10.0 mi NNE 15.0 mph 26.5 mph N/A   Scattered Clouds
3:15 PM 46.0 °F 39.6 °F 27.7 °F 49% 30.15 in 10.0 mi North 15.0 mph 28.8 mph N/A   Scattered Clouds
3:34 PM 46.4 °F 39.0 °F 28.6 °F 50% 30.15 in 10.0 mi North 19.6 mph 25.3 mph N/A   Mostly Cloudy
3:55 PM 45.5 °F 37.6 °F 28.4 °F 51% 30.14 in 10.0 mi North 20.7 mph 31.1 mph N/A   Mostly Cloudy
4:14 PM 45.5 °F 37.3 °F 28.0 °F 51% 30.14 in 10.0 mi North 21.9 mph 32.2 mph N/A   Mostly Cloudy
4:34 PM 45.0 °F 37.9 °F 27.5 °F 50% 30.15 in 10.0 mi North 16.1 mph 26.5 mph N/A   Mostly Cloudy
4:55 PM 44.8 °F 39.0 °F 27.0 °F 50% 30.14 in 10.0 mi North 11.5 mph 26.5 mph N/A   Mostly Cloudy
5:14 PM 44.6 °F 39.2 °F 27.0 °F 50% 30.14 in 10.0 mi North 10.4 mph 27.6 mph N/A   Overcast
5:35 PM 44.6 °F 39.2 °F 27.5 °F 51% 30.13 in 10.0 mi North 10.4 mph 25.3 mph N/A   Overcast
5:54 PM 44.4 °F 37.2 °F 27.9 °F 52% 30.14 in 10.0 mi North 16.1 mph 27.6 mph N/A   Overcast
6:14 PM 44.1 °F 36.5 °F 27.7 °F 53% 30.14 in 10.0 mi North 17.3 mph 27.6 mph N/A   Mostly Cloudy
6:35 PM 44.1 °F 37.1 °F 27.5 °F 52% 30.16 in 10.0 mi North 15.0 mph 21.9 mph N/A   Overcast
6:54 PM 43.9 °F 36.2 °F 27.1 °F 52% 30.15 in 10.0 mi North 17.3 mph 25.3 mph N/A   Overcast
7:15 PM 43.7 °F 35.4 °F 26.6 °F 51% 30.15 in 10.0 mi North 19.6 mph 32.2 mph N/A   Overcast
7:35 PM 43.5 °F 35.5 °F 26.2 °F 51% 30.14 in 10.0 mi North 18.4 mph 27.6 mph N/A   Overcast
7:54 PM 43.3 °F 37.2 °F 26.6 °F 52% 30.14 in 10.0 mi North 11.5 mph 20.7 mph N/A   Overcast
8:15 PM 43.0 °F 36.4 °F 27.1 °F 54% 30.15 in 10.0 mi North 12.7 mph 19.6 mph N/A   Overcast
8:34 PM 43.0 °F 35.1 °F 26.8 °F 53% 30.15 in 10.0 mi North 17.3 mph 24.2 mph N/A   Overcast
8:55 PM 43.0 °F 35.4 °F 27.0 °F 53% 30.14 in 10.0 mi North 16.1 mph 21.9 mph N/A   Overcast
9:14 PM 43.0 °F 35.7 °F 27.1 °F 54% 30.14 in 10.0 mi North 15.0 mph 25.3 mph N/A   Overcast
9:34 PM 43.2 °F 34.7 °F 27.5 °F 54% 30.14 in 10.0 mi North 19.6 mph 26.5 mph N/A   Overcast
9:54 PM 43.2 °F 36.2 °F 27.7 °F 54% 30.13 in 10.0 mi North 13.8 mph 24.2 mph N/A   Overcast
10:14 PM 43.3 °F 35.8 °F 28.2 °F 55% 30.13 in 10.0 mi North 16.1 mph 28.8 mph N/A   Overcast
10:35 PM 43.3 °F 35.8 °F 28.4 °F 56% 30.13 in 10.0 mi NNE 16.1 mph 25.3 mph N/A   Overcast
10:54 PM 43.0 °F 35.4 °F 28.4 °F 56% 30.13 in 10.0 mi North 16.1 mph 24.2 mph N/A   Overcast
11:15 PM 43.3 °F 36.1 °F 27.5 °F 54% 30.13 in 10.0 mi North 15.0 mph 24.2 mph N/A   Overcast
11:34 PM 43.3 °F 35.8 °F 27.7 °F 54% 30.12 in 10.0 mi North 16.1 mph 25.3 mph N/A   Overcast
11:54 PM 43.2 °F 35.9 °F 28.2 °F 56% 30.12 in 10.0 mi North 15.0 mph 29.9 mph N/A   Light Drizzle